| time (UTC) | temp F | wind direction | speed MPH | gust MPH | rain 1hr in | rain 24hr in | rain mn in | humidity % | barometer mb |
| 20260503060209 | 51 | 111 | 0.0 | 0.0 | 0.00 | 0.00 | 0.00 | 41 | 1009.6 |
| 20260503054655 | 51 | 185 | 2.0 | 2.0 | 0.00 | 0.00 | 0.00 | 39 | 1009.6 |
| 20260503054153 | 52 | 192 | 1.0 | 1.0 | 0.00 | 0.00 | 0.00 | 40 | 1009.6 |
| 20260503053651 | 52 | 234 | 0.0 | 0.0 | 0.00 | 0.00 | 0.00 | 40 | 1009.9 |
| 20260503053149 | 52 | 237 | 1.0 | 1.0 | 0.00 | 0.00 | 0.00 | 39 | 1009.9 |
| 20260503052645 | 52 | 237 | 2.0 | 2.0 | 0.00 | 0.00 | 0.00 | 39 | 1009.6 |
| 20260503052141 | 52 | 265 | 3.0 | 4.0 | 0.00 | 0.00 | 0.00 | 38 | 1009.9 |
| 20260503051637 | 52 | 122 | 1.0 | 1.0 | 0.00 | 0.00 | 0.00 | 39 | 1009.9 |
| 20260503051135 | 53 | 148 | 3.0 | 3.0 | 0.00 | 0.00 | 0.00 | 38 | 1009.9 |
| 20260503050631 | 53 | 102 | 0.0 | 0.0 | 0.00 | 0.00 | 0.00 | 38 | 1009.9 |
| 20260503050128 | 52 | 166 | 2.0 | 2.0 | 0.00 | 0.00 | 0.00 | 39 | 1009.9 |
| 20260503045626 | 52 | 193 | 0.0 | 0.0 | 0.00 | 0.00 | 0.00 | 39 | 1009.9 |
| 20260503045123 | 52 | 120 | 2.0 | 2.0 | 0.00 | 0.00 | 0.00 | 40 | 1009.9 |
| 20260503044619 | 52 | 180 | 2.0 | 2.0 | 0.00 | 0.00 | 0.00 | 39 | 1009.6 |
| 20260503044117 | 52 | 138 | 1.0 | 1.0 | 0.00 | 0.00 | 0.00 | 39 | 1009.9 |
| 20260503043613 | 52 | 84 | 2.0 | 2.0 | 0.00 | 0.00 | 0.00 | 40 | 1010.3 |
| 20260503043110 | 52 | 126 | 2.0 | 2.0 | 0.00 | 0.00 | 0.00 | 39 | 1010.3 |
| 20260503042607 | 52 | 136 | 0.0 | 0.0 | 0.00 | 0.00 | 0.00 | 40 | 1010.3 |
| 20260503042103 | 52 | 174 | 2.0 | 2.0 | 0.00 | 0.00 | 0.00 | 40 | 1010.3 |
| 20260503041559 | 52 | 154 | 2.0 | 2.0 | 0.00 | 0.00 | 0.00 | 41 | 1010.3 |
| 20260503041057 | 52 | 144 | 1.0 | 1.0 | 0.00 | 0.00 | 0.00 | 42 | 1010.6 |
| 20260503040554 | 51 | 171 | 0.0 | 0.0 | 0.00 | 0.00 | 0.00 | 41 | 1010.3 |
| 20260503040051 | 51 | 102 | 1.0 | 1.0 | 0.00 | 0.00 | 0.00 | 41 | 1010.6 |
| 20260503035548 | 51 | 266 | 1.0 | 1.0 | 0.00 | 0.00 | 0.00 | 43 | 1010.6 |
| 20260503035046 | 49 | 265 | 0.0 | 0.0 | 0.00 | 0.00 | 0.00 | 42 | 1010.6 |
| 20260503034543 | 48 | 265 | 0.0 | 0.0 | 0.00 | 0.00 | 0.00 | 45 | 1010.6 |
| 20260503034040 | 48 | 265 | 0.0 | 0.0 | 0.00 | 0.00 | 0.00 | 51 | 1010.6 |
| 20260503033537 | 47 | 265 | 0.0 | 0.0 | 0.00 | 0.00 | 0.00 | 48 | 1010.9 |
| 20260503033035 | 45 | 265 | 0.0 | 0.0 | 0.00 | 0.00 | 0.00 | 49 | 1010.6 |
| 20260503032533 | 44 | 264 | 0.0 | 0.0 | 0.00 | 0.00 | 0.00 | 52 | 1010.9 |
| 20260503032031 | 44 | 265 | 0.0 | 0.0 | 0.00 | 0.00 | 0.00 | 56 | 1010.9 |
| 20260503031528 | 43 | 265 | 0.0 | 0.0 | 0.00 | 0.00 | 0.00 | 56 | 1010.9 |
| 20260503031025 | 43 | 265 | 0.0 | 0.0 | 0.00 | 0.00 | 0.00 | 56 | 1011.3 |
| 20260503030521 | 43 | 265 | 0.0 | 0.0 | 0.00 | 0.00 | 0.00 | 57 | 1010.9 |
| 20260503030019 | 42 | 265 | 0.0 | 0.0 | 0.00 | 0.00 | 0.00 | 56 | 1011.3 |
| 20260503025515 | 42 | 265 | 0.0 | 0.0 | 0.00 | 0.00 | 0.00 | 56 | 1011.3 |
| 20260503025013 | 42 | 264 | 0.0 | 0.0 | 0.00 | 0.00 | 0.00 | 56 | 1010.9 |
| 20260503024509 | 42 | 264 | 0.0 | 0.0 | 0.00 | 0.00 | 0.00 | 57 | 1011.3 |
| 20260503024007 | 42 | 265 | 0.0 | 0.0 | 0.00 | 0.00 | 0.00 | 56 | 1010.9 |
| 20260503023503 | 42 | 265 | 0.0 | 0.0 | 0.00 | 0.00 | 0.00 | 56 | 1010.9 |
| 20260503023000 | 42 | 265 | 0.0 | 0.0 | 0.00 | 0.00 | 0.00 | 56 | 1011.3 |
| 20260503022455 | 43 | 265 | 0.0 | 0.0 | 0.00 | 0.00 | 0.00 | 55 | 1011.3 |
| 20260503021951 | 43 | 265 | 0.0 | 0.0 | 0.00 | 0.00 | 0.00 | 54 | 1011.3 |
| 20260503021448 | 43 | 265 | 0.0 | 0.0 | 0.00 | 0.00 | 0.00 | 54 | 1011.3 |
| 20260503020945 | 44 | 265 | 0.0 | 0.0 | 0.00 | 0.00 | 0.00 | 53 | 1011.3 |
| 20260503020443 | 44 | 265 | 0.0 | 0.0 | 0.00 | 0.00 | 0.00 | 53 | 1011.3 |
| 20260503015939 | 44 | 265 | 0.0 | 0.0 | 0.00 | 0.00 | 0.00 | 53 | 1011.3 |
| 20260503015436 | 44 | 265 | 0.0 | 0.0 | 0.00 | 0.00 | 0.00 | 51 | 1011.3 |
| 20260503014932 | 45 | 265 | 0.0 | 0.0 | 0.00 | 0.00 | 0.00 | 51 | 1010.9 |
| 20260503014429 | 45 | 265 | 0.0 | 0.0 | 0.00 | 0.00 | 0.00 | 51 | 1010.9 |
| 20260503013927 | 46 | 265 | 0.0 | 0.0 | 0.00 | 0.00 | 0.00 | 48 | 1011.3 |
| 20260503013424 | 47 | 265 | 0.0 | 0.0 | 0.00 | 0.00 | 0.00 | 46 | 1010.9 |
| 20260503012921 | 48 | 265 | 0.0 | 0.0 | 0.00 | 0.00 | 0.00 | 43 | 1010.9 |
| 20260503012419 | 49 | 265 | 0.0 | 0.0 | 0.00 | 0.00 | 0.00 | 42 | 1010.9 |
| 20260503011915 | 50 | 265 | 0.0 | 0.0 | 0.00 | 0.00 | 0.00 | 41 | 1010.9 |
| 20260503011412 | 51 | 265 | 0.0 | 0.0 | 0.00 | 0.00 | 0.00 | 39 | 1010.9 |
| 20260503010909 | 52 | 265 | 0.0 | 0.0 | 0.00 | 0.00 | 0.00 | 37 | 1010.9 |
| 20260503010406 | 53 | 265 | 0.0 | 0.0 | 0.00 | 0.00 | 0.00 | 35 | 1010.9 |
| 20260503005903 | 54 | 265 | 0.0 | 0.0 | 0.00 | 0.00 | 0.00 | 34 | 1011.3 |
| 20260503005400 | 55 | 265 | 0.0 | 0.0 | 0.00 | 0.00 | 0.00 | 33 | 1010.9 |
| 20260503004856 | 55 | 232 | 0.0 | 0.0 | 0.00 | 0.00 | 0.00 | 32 | 1011.3 |
| 20260503004354 | 56 | 232 | 0.0 | 0.0 | 0.00 | 0.00 | 0.00 | 32 | 1010.9 |
| 20260503003851 | 56 | 232 | 1.0 | 1.0 | 0.00 | 0.00 | 0.00 | 31 | 1011.3 |
| 20260503003348 | 57 | 240 | 0.0 | 0.0 | 0.00 | 0.00 | 0.00 | 30 | 1010.6 |
| 20260503002845 | 57 | 204 | 2.0 | 2.0 | 0.00 | 0.00 | 0.00 | 31 | 1010.9 |
| 20260503002342 | 58 | 222 | 2.0 | 2.0 | 0.00 | 0.00 | 0.00 | 30 | 1010.9 |
| 20260503001838 | 58 | 277 | 3.0 | 3.0 | 0.00 | 0.00 | 0.00 | 29 | 1010.9 |
| 20260503001335 | 58 | 276 | 2.0 | 2.0 | 0.00 | 0.00 | 0.00 | 30 | 1011.3 |
| 20260503000832 | 59 | 208 | 2.0 | 2.0 | 0.00 | 0.00 | 0.00 | 29 | 1011.3 |
| 20260503000330 | 59 | 252 | 2.0 | 2.0 | 0.00 | 0.00 | 0.00 | 28 | 1011.3 |
| 20260502235827 | 60 | 26 | 2.0 | 2.0 | 0.00 | 0.00 | 0.00 | 28 | 1010.9 |
| 20260502235324 | 60 | 272 | 2.0 | 2.0 | 0.00 | 0.00 | 0.00 | 27 | 1011.3 |
| 20260502234820 | 60 | 184 | 4.0 | 5.0 | 0.00 | 0.00 | 0.00 | 28 | 1011.3 |
| 20260502234317 | 60 | 138 | 2.0 | 2.0 | 0.00 | 0.00 | 0.00 | 27 | 1011.3 |
| 20260502233814 | 61 | 248 | 1.0 | 1.0 | 0.00 | 0.00 | 0.00 | 26 | 1011.3 |
| 20260502233310 | 61 | 283 | 2.0 | 2.0 | 0.00 | 0.00 | 0.00 | 27 | 1011.3 |
| 20260502232807 | 60 | 198 | 1.0 | 1.0 | 0.00 | 0.00 | 0.00 | 27 | 1011.6 |
| 20260502232305 | 60 | 104 | 3.0 | 3.0 | 0.00 | 0.00 | 0.00 | 27 | 1011.3 |
| 20260502231800 | 61 | 184 | 6.0 | 7.0 | 0.00 | 0.00 | 0.00 | 26 | 1011.6 |
| 20260502231258 | 61 | 222 | 2.0 | 2.0 | 0.00 | 0.00 | 0.00 | 25 | 1011.6 |
| 20260502230756 | 62 | 282 | 3.0 | 3.0 | 0.00 | 0.00 | 0.00 | 25 | 1011.6 |
| 20260502230254 | 61 | 265 | 2.0 | 2.0 | 0.00 | 0.00 | 0.00 | 25 | 1011.6 |
| 20260502225750 | 62 | 285 | 2.0 | 2.0 | 0.00 | 0.00 | 0.00 | 26 | 1011.6 |
| 20260502225247 | 61 | 174 | 2.0 | 2.0 | 0.00 | 0.00 | 0.00 | 26 | 1012.1 |
| 20260502224743 | 61 | 320 | 3.0 | 3.0 | 0.00 | 0.00 | 0.00 | 27 | 1011.6 |
| 20260502224240 | 62 | 141 | 3.0 | 3.0 | 0.00 | 0.00 | 0.00 | 26 | 1011.6 |
| 20260502223738 | 62 | 187 | 2.0 | 2.0 | 0.00 | 0.00 | 0.00 | 25 | 1011.6 |
| 20260502223236 | 62 | 280 | 2.0 | 2.0 | 0.00 | 0.00 | 0.00 | 26 | 1012.1 |
| 20260502222733 | 63 | 312 | 0.0 | 0.0 | 0.00 | 0.00 | 0.00 | 23 | 1011.6 |
| 20260502222230 | 62 | 280 | 5.0 | 6.0 | 0.00 | 0.00 | 0.00 | 25 | 1011.6 |
| 20260502221725 | 62 | 282 | 3.0 | 3.0 | 0.00 | 0.00 | 0.00 | 26 | 1012.1 |
| 20260502221223 | 61 | 287 | 2.0 | 2.0 | 0.00 | 0.00 | 0.00 | 25 | 1012.1 |
| 20260502220719 | 61 | 196 | 2.0 | 2.0 | 0.00 | 0.00 | 0.00 | 26 | 1012.1 |
| 20260502220215 | 63 | 288 | 5.0 | 6.0 | 0.00 | 0.00 | 0.00 | 25 | 1012.1 |
| 20260502215712 | 63 | 204 | 6.0 | 6.0 | 0.00 | 0.00 | 0.00 | 24 | 1012.4 |
| 20260502215209 | 62 | 335 | 2.0 | 2.0 | 0.00 | 0.00 | 0.00 | 25 | 1012.4 |
| 20260502214707 | 62 | 18 | 3.0 | 3.0 | 0.00 | 0.00 | 0.00 | 26 | 1012.4 |
| 20260502214204 | 61 | 278 | 2.0 | 2.0 | 0.00 | 0.00 | 0.00 | 26 | 1012.4 |
| 20260502213701 | 60 | 236 | 5.0 | 5.0 | 0.00 | 0.00 | 0.00 | 26 | 1012.4 |
| 20260502213158 | 61 | 274 | 3.0 | 3.0 | 0.00 | 0.00 | 0.00 | 27 | 1012.4 |
| 20260502212656 | 61 | 132 | 7.0 | 7.0 | 0.00 | 0.00 | 0.00 | 26 | 1012.1 |
| 20260502212154 | 59 | 160 | 2.0 | 2.0 | 0.00 | 0.00 | 0.00 | 29 | 1012.7 |
| 20260502211649 | 60 | 271 | 3.0 | 3.0 | 0.00 | 0.00 | 0.00 | 27 | 1012.7 |
| 20260502211147 | 61 | 263 | 2.0 | 2.0 | 0.00 | 0.00 | 0.00 | 27 | 1012.7 |
| 20260502210644 | 60 | 209 | 5.0 | 5.0 | 0.00 | 0.00 | 0.00 | 26 | 1012.7 |
| 20260502210141 | 61 | 300 | 2.0 | 2.0 | 0.00 | 0.00 | 0.00 | 26 | 1012.7 |
| 20260502205638 | 61 | 264 | 6.0 | 6.0 | 0.00 | 0.00 | 0.00 | 26 | 1012.7 |
| 20260502205135 | 62 | 271 | 2.0 | 2.0 | 0.00 | 0.00 | 0.00 | 26 | 1013.1 |
| 20260502204632 | 62 | 150 | 2.0 | 2.0 | 0.00 | 0.00 | 0.00 | 24 | 1013.1 |
| 20260502204129 | 61 | 182 | 6.0 | 6.0 | 0.00 | 0.00 | 0.00 | 26 | 1013.1 |
| 20260502203626 | 61 | 214 | 6.0 | 7.0 | 0.00 | 0.00 | 0.00 | 26 | 1013.1 |
| 20260502203124 | 59 | 306 | 3.0 | 3.0 | 0.00 | 0.00 | 0.00 | 27 | 1013.1 |
| 20260502202619 | 59 | 261 | 4.0 | 4.0 | 0.00 | 0.00 | 0.00 | 27 | 1013.1 |
| 20260502202117 | 60 | 202 | 5.0 | 6.0 | 0.00 | 0.00 | 0.00 | 27 | 1013.1 |
| 20260502201613 | 60 | 196 | 6.0 | 6.0 | 0.00 | 0.00 | 0.00 | 27 | 1013.1 |
| 20260502201110 | 62 | 199 | 3.0 | 3.0 | 0.00 | 0.00 | 0.00 | 26 | 1013.4 |
| 20260502200606 | 61 | 153 | 5.0 | 5.0 | 0.00 | 0.00 | 0.00 | 28 | 1013.4 |
| 20260502200104 | 60 | 224 | 3.0 | 3.0 | 0.00 | 0.00 | 0.00 | 27 | 1013.4 |
| 20260502195602 | 59 | 329 | 2.0 | 2.0 | 0.00 | 0.00 | 0.00 | 28 | 1013.7 |
| 20260502195057 | 60 | 264 | 4.0 | 5.0 | 0.00 | 0.00 | 0.00 | 27 | 1013.7 |
| 20260502194554 | 60 | 54 | 4.0 | 4.0 | 0.00 | 0.00 | 0.00 | 27 | 1013.7 |
| 20260502194050 | 59 | 189 | 2.0 | 2.0 | 0.00 | 0.00 | 0.00 | 28 | 1014.1 |
| 20260502193548 | 59 | 231 | 5.0 | 6.0 | 0.00 | 0.00 | 0.00 | 26 | 1014.1 |
| 20260502193044 | 59 | 266 | 6.0 | 7.0 | 0.00 | 0.00 | 0.00 | 27 | 1014.1 |
| 20260502192540 | 60 | 8 | 5.0 | 6.0 | 0.00 | 0.00 | 0.00 | 26 | 1014.1 |
| 20260502192037 | 58 | 283 | 2.0 | 2.0 | 0.00 | 0.00 | 0.00 | 28 | 1014.1 |
| 20260502191534 | 58 | 193 | 1.0 | 1.0 | 0.00 | 0.00 | 0.00 | 28 | 1014.1 |
| 20260502191032 | 58 | 108 | 4.0 | 4.0 | 0.00 | 0.00 | 0.00 | 26 | 1014.1 |
| 20260502190529 | 60 | 170 | 6.0 | 7.0 | 0.00 | 0.00 | 0.00 | 26 | 1014.1 |
| 20260502190026 | 58 | 216 | 2.0 | 2.0 | 0.00 | 0.00 | 0.00 | 27 | 1014.4 |
| 20260502185521 | 58 | 294 | 4.0 | 4.0 | 0.00 | 0.00 | 0.00 | 27 | 1014.4 |
| 20260502185018 | 58 | 266 | 5.0 | 6.0 | 0.00 | 0.00 | 0.00 | 27 | 1014.4 |
| 20260502184514 | 59 | 204 | 4.0 | 4.0 | 0.00 | 0.00 | 0.00 | 26 | 1014.8 |
| 20260502184010 | 58 | 265 | 2.0 | 2.0 | 0.00 | 0.00 | 0.00 | 27 | 1014.4 |
| 20260502183507 | 57 | 266 | 4.0 | 5.0 | 0.00 | 0.00 | 0.00 | 28 | 1014.8 |
| 20260502183001 | 57 | 258 | 4.0 | 4.0 | 0.00 | 0.00 | 0.00 | 27 | 1014.8 |
| 20260502182457 | 57 | 306 | 3.0 | 3.0 | 0.00 | 0.00 | 0.00 | 27 | 1014.8 |
| 20260502181954 | 58 | 250 | 3.0 | 3.0 | 0.00 | 0.00 | 0.00 | 26 | 1014.8 |
| 20260502181452 | 60 | 258 | 3.0 | 3.0 | 0.00 | 0.00 | 0.00 | 26 | 1014.4 |
| 20260502180950 | 58 | 310 | 2.0 | 2.0 | 0.00 | 0.00 | 0.00 | 24 | 1015.1 |
| 20260502180447 | 58 | 234 | 2.0 | 2.0 | 0.00 | 0.00 | 0.00 | 26 | 1014.8 |
| 20260502170406 | 55 | 318 | 5.0 | 6.0 | 0.00 | 0.00 | 0.00 | 30 | 1015.5 |
| 20260502163849 | 55 | 328 | 5.0 | 6.0 | 0.00 | 0.00 | 0.00 | 30 | 1015.5 |
| 20260502163346 | 57 | 311 | 6.0 | 6.0 | 0.00 | 0.00 | 0.00 | 29 | 1015.9 |
| 20260502162843 | 58 | 120 | 3.0 | 4.0 | 0.00 | 0.00 | 0.00 | 27 | 1015.9 |
| 20260502162340 | 57 | 312 | 3.0 | 3.0 | 0.00 | 0.00 | 0.00 | 29 | 1015.9 |
| 20260502161837 | 56 | 296 | 4.0 | 4.0 | 0.00 | 0.00 | 0.00 | 29 | 1016.2 |
| 20260502161333 | 56 | 300 | 3.0 | 4.0 | 0.00 | 0.00 | 0.00 | 30 | 1016.2 |
| 20260502160831 | 56 | 17 | 4.0 | 4.0 | 0.00 | 0.00 | 0.00 | 31 | 1016.2 |
| 20260502160330 | 55 | 226 | 4.0 | 4.0 | 0.00 | 0.00 | 0.00 | 31 | 1016.6 |
| 20260502152259 | 54 | 293 | 4.0 | 4.0 | 0.00 | 0.00 | 0.00 | 33 | 1016.6 |
| 20260502151756 | 54 | 264 | 2.0 | 2.0 | 0.00 | 0.00 | 0.00 | 34 | 1016.6 |
| 20260502151253 | 53 | 311 | 3.0 | 3.0 | 0.00 | 0.00 | 0.00 | 33 | 1016.6 |
| 20260502150751 | 52 | 163 | 6.0 | 6.0 | 0.00 | 0.00 | 0.00 | 34 | 1016.6 |
| 20260502150247 | 52 | 293 | 2.0 | 2.0 | 0.00 | 0.00 | 0.00 | 34 | 1016.9 |
| 20260502130636 | 45 | 228 | 3.0 | 4.0 | 0.00 | 0.00 | 0.00 | 54 | 1017.6 |
| 20260502130134 | 44 | 277 | 0.0 | 0.0 | 0.00 | 0.00 | 0.00 | 56 | 1017.6 |
| 20260502123620 | 39 | 282 | 0.0 | 0.0 | 0.00 | 0.00 | 0.00 | 72 | 1017.6 |
| 20260502123115 | 37 | 282 | 0.0 | 0.0 | 0.00 | 0.00 | 0.00 | 81 | 1017.6 |
| 20260502122612 | 36 | 282 | 0.0 | 0.0 | 0.00 | 0.00 | 0.00 | 84 | 1017.6 |
| 20260502122109 | 35 | 282 | 0.0 | 0.0 | 0.00 | 0.00 | 0.00 | 85 | 1017.6 |
| 20260502121607 | 34 | 282 | 0.0 | 0.0 | 0.00 | 0.00 | 0.00 | 86 | 1017.6 |
| 20260502121105 | 33 | 282 | 0.0 | 0.0 | 0.00 | 0.00 | 0.00 | 86 | 1017.2 |
| 20260502120600 | 33 | 282 | 0.0 | 0.0 | 0.00 | 0.00 | 0.00 | 87 | 1017.6 |
| 20260502115556 | 31 | 282 | 0.0 | 0.0 | 0.00 | 0.00 | 0.00 | 88 | 1017.6 |
| 20260502115051 | 31 | 282 | 0.0 | 0.0 | 0.00 | 0.00 | 0.00 | 88 | 1017.2 |
| 20260502114547 | 31 | 282 | 0.0 | 0.0 | 0.00 | 0.00 | 0.00 | 89 | 1017.2 |
| 20260502114044 | 30 | 282 | 0.0 | 0.0 | 0.00 | 0.00 | 0.00 | 88 | 1017.2 |
| 20260502113542 | 30 | 282 | 0.0 | 0.0 | 0.00 | 0.00 | 0.00 | 89 | 1017.2 |
| 20260502113041 | 30 | 282 | 0.0 | 0.0 | 0.00 | 0.00 | 0.00 | 89 | 1017.2 |
| 20260502112538 | 29 | 282 | 0.0 | 0.0 | 0.00 | 0.00 | 0.00 | 89 | 1017.6 |
| 20260502112035 | 29 | 282 | 0.0 | 0.0 | 0.00 | 0.00 | 0.00 | 89 | 1017.6 |
| 20260502111532 | 29 | 282 | 0.0 | 0.0 | 0.00 | 0.00 | 0.00 | 90 | 1017.6 |
| 20260502111030 | 29 | 282 | 0.0 | 0.0 | 0.00 | 0.00 | 0.00 | 90 | 1017.2 |
| 20260502110527 | 29 | 282 | 0.0 | 0.0 | 0.00 | 0.00 | 0.00 | 90 | 1017.2 |
| 20260502110025 | 29 | 282 | 0.0 | 0.0 | 0.00 | 0.00 | 0.00 | 90 | 1017.2 |
| 20260502105522 | 29 | 282 | 0.0 | 0.0 | 0.00 | 0.00 | 0.00 | 89 | 1017.6 |
| 20260502105020 | 29 | 282 | 0.0 | 0.0 | 0.00 | 0.00 | 0.00 | 89 | 1016.9 |
| 20260502104516 | 29 | 282 | 0.0 | 0.0 | 0.00 | 0.00 | 0.00 | 89 | 1017.2 |
| 20260502104014 | 29 | 282 | 0.0 | 0.0 | 0.00 | 0.00 | 0.00 | 89 | 1017.2 |
| 20260502103511 | 29 | 282 | 0.0 | 0.0 | 0.00 | 0.00 | 0.00 | 89 | 1016.9 |
| 20260502103009 | 29 | 282 | 0.0 | 0.0 | 0.00 | 0.00 | 0.00 | 89 | 1017.2 |
| 20260502102505 | 29 | 282 | 0.0 | 0.0 | 0.00 | 0.00 | 0.00 | 89 | 1017.2 |
| 20260502102003 | 29 | 282 | 0.0 | 0.0 | 0.00 | 0.00 | 0.00 | 88 | 1017.2 |
| 20260502101500 | 29 | 282 | 0.0 | 0.0 | 0.00 | 0.00 | 0.00 | 88 | 1016.9 |
| 20260502100959 | 29 | 282 | 0.0 | 0.0 | 0.00 | 0.00 | 0.00 | 88 | 1017.2 |
| 20260502100457 | 29 | 282 | 0.0 | 0.0 | 0.00 | 0.00 | 0.00 | 88 | 1017.2 |
| 20260502091431 | 27 | 282 | 0.0 | 0.0 | 0.00 | 0.00 | 0.00 | 88 | 1016.9 |
| 20260502090928 | 27 | 282 | 0.0 | 0.0 | 0.00 | 0.00 | 0.00 | 88 | 1017.2 |
| 20260502090426 | 27 | 282 | 0.0 | 0.0 | 0.00 | 0.00 | 0.00 | 88 | 1017.2 |
| 20260502071320 | 24 | 282 | 0.0 | 0.0 | 0.00 | 0.00 | 0.00 | 86 | 1017.2 |
| 20260502070818 | 24 | 282 | 0.0 | 0.0 | 0.00 | 0.00 | 0.00 | 87 | 1017.2 |
| 20260502070315 | 24 | 282 | 0.0 | 0.0 | 0.00 | 0.00 | 0.00 | 87 | 1017.2 |
| 20260502065815 | 24 | 282 | 0.0 | 0.0 | 0.00 | 0.00 | 0.00 | 86 | 1017.2 |
| 20260502065312 | 24 | 282 | 0.0 | 0.0 | 0.00 | 0.00 | 0.00 | 86 | 1017.2 |
| 20260502064810 | 24 | 282 | 0.0 | 0.0 | 0.00 | 0.00 | 0.00 | 86 | 1017.6 |
| 20260502064308 | 24 | 282 | 0.0 | 0.0 | 0.00 | 0.00 | 0.00 | 86 | 1017.2 |
| 20260502063805 | 24 | 282 | 0.0 | 0.0 | 0.00 | 0.00 | 0.00 | 87 | 1017.6 |
| 20260502063303 | 24 | 282 | 0.0 | 0.0 | 0.00 | 0.00 | 0.00 | 86 | 1017.2 |
| 20260502062759 | 24 | 282 | 0.0 | 0.0 | 0.00 | 0.00 | 0.00 | 86 | 1017.2 |
| 20260502062257 | 24 | 282 | 0.0 | 0.0 | 0.00 | 0.00 | 0.00 | 87 | 1017.6 |
| 20260502061755 | 24 | 282 | 0.0 | 0.0 | 0.00 | 0.00 | 0.00 | 86 | 1017.6 |